Rbgn^[z[y[W
メイン
   新天体発見情報
     Comet P/2021 N4 = P/2016 U2 (PANSTARRS)
投稿するにはまず登録を

スレッド表示 | 新しいものから 前のトピック | 次のトピック | 下へ
投稿者 スレッド
佐藤裕久
投稿日時: 2021-9-27 13:49
モデレータ
登録日: 2005-6-12
居住地: 日本
投稿: 2559
オンライン
Comet P/2021 N4 = P/2016 U2 (PANSTARRS)

R. Weryk (西オンタリオ大学,物理および天文学科)は、2016年、HaleakalaのPan-STARRS1 1.8-m Ritchey-
Chretien反射望遠鏡で得た画像をP/2021 N4と同定した。
2016年10月25.5日UT、1".2のシーイングで得た、3枚の45秒w-バンドサーベイ画像から、非常に集光した
恒星イメージより少し大きい(1".3の半値全幅:FWHM)であったが、p.a. 220°に向かって3" の短い尾が
見えた。11月15日のi-バンドの画像では、彗星があまりにも暗く、活動が確認できなかった。

2016年の観測は、CBET 5019の中野主一氏((CBAT)の軌道に対し、Delta(T) = +6.3 daysであった。

同定位置は次のとおり、

     2016 UT             R.A. (2000) Decl.       Mag.
     Oct. 25.47090    1 55 03.16   +19 46 44.8   20.9
          25.48345    1 55 02.55   +19 46 38.0   20.7
          25.49596    1 55 01.95   +19 46 31.3   20.7
     Nov. 15.41168    1 41 37.20   +16 38 07.1   21.4
          15.42539    1 41 36.80   +16 38 00.1   21.4
          15.45287    1 41 36.01   +16 37 45.9   21.6

MPCの連結軌道要素と位置推算表は次のとおり、

Orbital elements:
    P/2021 N4                                                                   
Epoch 2021 Aug. 14.0 TT = JDT 2459440.5                                         
T 2021 Aug. 30.63190 TT                                 Rudenko                 
q   2.3009643            (2000.0)            P               Q                  
n   0.18615847     Peri.  105.29919     +0.95070554     +0.27135550             
a   3.0377184      Node   239.16339     -0.30584523     +0.90038886             
e   0.2425353      Incl.   10.06667     +0.05116319     +0.34009718             
P   5.29                                                                        
From 27 observations 2016 Oct. 25-2021 Aug. 14, mean residual 0".3.             
                                                                                
    P/2021 N4                                                                   
Epoch 2026 Dec. 26.0 TT = JDT 2461400.5                                         
T 2026 Dec. 15.30370 TT                                 Rudenko                 
q   2.3076249            (2000.0)            P               Q                  
n   0.18605727     Peri.  105.21554     +0.95011707     +0.27344918             
a   3.0388198      Node   239.12128     -0.30779759     +0.89975646             
e   0.2406180      Incl.   10.06616     +0.05038059     +0.34009390             
P   5.30                                                                        
From 27 observations 2016 Oct. 25-2021 Aug. 14, mean residual 0".3.             
                                                                                
    P/2021 N4                                                                   
Epoch 2021 July 5.0 TT = JDT 2459400.5                                          
T 2021 Aug. 30.68466 TT                                 Rudenko                 
q   2.3009352            (2000.0)            P               Q                  
n   0.18613743     Peri.  105.30607     +0.95078503     +0.27106890             
a   3.0379473      Node   239.17366     -0.30558013     +0.90047002             
e   0.2426020      Incl.   10.06656     +0.05127001     +0.34011087             
P   5.30                                                                        
From 27 observations 2016 Oct. 25-2021 Aug. 14, mean residual 0".3.             
                                                                                
Ephemeris:
Date    TT    R. A. (2000) Decl.     Delta      r    Elong.  Phase   m1
2021 08 01    23 11 42.9 +11 46 43   1.4922  2.3069   133.0    18.8  21.5
...
2021 08 16    23 07 11.8 +12 19 02   1.3901  2.3024   146.3    14.1  21.3
...
2021 08 24    23 02 55.1 +12 11 08   1.3526  2.3013   153.3    11.4  21.3
...
2021 08 30    22 59 07.9 +11 53 30   1.3333  2.3010   158.0     9.4  21.2
2021 08 31    22 58 28.0 +11 49 37   1.3309  2.3010   158.7     9.2  21.2
2021 09 01    22 57 47.8 +11 45 29   1.3287  2.3010   159.4     8.9  21.2
...
2021 09 07    22 53 41.9 +11 15 22   1.3203  2.3013   162.4     7.6  21.2
...
2021 09 15    22 48 21.7 +10 23 12   1.3225  2.3026   162.8     7.4  21.2
...
2021 09 30    22 40 31.7 +08 23 30   1.3675  2.3072   153.4    11.2  21.3

(MPEC 2021-Q96、CBET 5041)

スレッド表示 | 新しいものから 前のトピック | 次のトピック | トップ

投稿するにはまず登録を
 
© 1999 Tsutomu Seki.